Weather History for Beaufort MCAS, SC

Change the Weather History Date:

Wednesday, October 9, 2013

  Actual Average Record
Temperature  
Mean Temperature 68 °F -  
Max Temperature 79 °F 78 °F 90 °F (1939)
Min Temperature 57 °F 60 °F 42 °F (2000)
Cooling Degree Days 3    
Growing Degree Days 18 (Base 50)    
Moisture  
Dew Point 57 °F    
Average Humidity 73    
Maximum Humidity 87    
Minimum Humidity 52    
Precipitation  
Precipitation 0.00 in - - ()
Sea Level Pressure  
Sea Level Pressure 30.08 in    
Wind  
Wind Speed 10 mph (North)    
Max Wind Speed 15 mph    
Max Gust Speed 24 mph    
Visibility 10 miles    
Events      
Averages and records for this station are not official NWS values.
T = Trace of Precipitation, MM = Missing Value Source: NWS Daily Summary

Daily Weather History Graph

Daily Weather History Graph

Search for Another Location

Airport:

Trip Planner

Search our weather history database for the weather conditions in past years. The results will help you decide how hot, cold, wet, or windy it might be!

Date:

Astronomy

Oct. 09, 2013 Rise Set
Actual Time 7:22 AM EDT 6:57 PM EDT
Civil Twilight 6:57 AM EDT 7:21 PM EDT
Nautical Twilight 6:29 AM EDT 7:50 PM EDT
Astronomical Twilight 6:00 AM EDT 8:18 PM EDT
Moon 12:03 PM EDT (10/9) 10:43 PM EDT (10/9)
Length of Visible Light 12h 23m
Length of Day
11h 34m
Waxing Crescent, 25% of the Moon is Illuminated
Oct 9
Waxing Crescent
Oct 11
First Quarter
Oct 18
Full
Oct 26
Last Quarter
Nov 3
New

Hourly Weather History & Observations

Time (EDT) Temp. Dew Point Humidity Pressure Visibility Wind Dir Wind Speed Gust Speed Precip Events Conditions
12:56 AM 60.1 °F 55.9 °F 86% 30.07 in 10.0 mi North 10.4 mph - N/A   Overcast
1:56 AM 60.1 °F 55.9 °F 86% 30.07 in 10.0 mi North 10.4 mph 21.9 mph N/A   Overcast
2:56 AM 60.1 °F 55.0 °F 83% 30.07 in 10.0 mi North 11.5 mph - N/A   Overcast
3:56 AM 60.1 °F 55.0 °F 83% 30.07 in 10.0 mi North 11.5 mph - N/A   Overcast
4:56 AM 60.1 °F 54.0 °F 80% 30.07 in 10.0 mi NNE 13.8 mph - N/A   Overcast
5:56 AM 60.1 °F 54.0 °F 80% 30.08 in 10.0 mi North 10.4 mph - N/A   Overcast
6:31 AM 59.0 °F 54.0 °F 83% 30.08 in 10.0 mi North 8.1 mph - N/A   Mostly Cloudy
6:45 AM 59.0 °F 54.0 °F 83% 30.09 in 10.0 mi North 6.9 mph - N/A   Scattered Clouds
6:56 AM 57.9 °F 54.0 °F 87% 30.09 in 10.0 mi North 9.2 mph - N/A   Scattered Clouds
7:56 AM 59.0 °F 54.0 °F 83% 30.11 in 10.0 mi North 10.4 mph - N/A   Mostly Cloudy
8:56 AM 60.1 °F 54.0 °F 80% 30.12 in 10.0 mi NNE 10.4 mph - N/A   Mostly Cloudy
9:56 AM 64.9 °F 55.0 °F 70% 30.12 in 10.0 mi NNE 15.0 mph 24.2 mph N/A   Mostly Cloudy
10:08 AM 64.9 °F 55.0 °F 70% 30.11 in 10.0 mi NNE 15.0 mph 24.2 mph N/A   Scattered Clouds
10:56 AM 69.1 °F 55.9 °F 63% 30.11 in 10.0 mi North 15.0 mph - N/A   Scattered Clouds
11:56 AM 70.0 °F 57.0 °F 63% 30.10 in 10.0 mi North 10.4 mph - N/A   Partly Cloudy
12:56 PM 73.0 °F 57.9 °F 59% 30.09 in 10.0 mi NNW 10.4 mph - N/A   Partly Cloudy
1:56 PM 75.9 °F 59.0 °F 56% 30.07 in 10.0 mi North 12.7 mph - N/A   Partly Cloudy
2:56 PM 78.1 °F 60.1 °F 54% 30.04 in 10.0 mi NNW 11.5 mph - N/A   Partly Cloudy
3:56 PM 79.0 °F 60.1 °F 52% 30.04 in 10.0 mi North 11.5 mph - N/A   Partly Cloudy
4:56 PM 78.1 °F 60.1 °F 54% 30.05 in 10.0 mi North 13.8 mph - N/A   Partly Cloudy
5:56 PM 75.9 °F 60.1 °F 58% 30.05 in 10.0 mi North 9.2 mph - N/A   Partly Cloudy
6:56 PM 71.1 °F 61.0 °F 70% 30.05 in 10.0 mi North 6.9 mph - N/A   Partly Cloudy
7:56 PM 69.1 °F 61.0 °F 75% 30.05 in 10.0 mi North 4.6 mph - N/A   Clear
8:56 PM 66.9 °F 61.0 °F 81% 30.06 in 10.0 mi North 6.9 mph - N/A   Clear
9:56 PM 64.9 °F 60.1 °F 84% 30.08 in 10.0 mi NNE 5.8 mph - N/A   Clear
10:56 PM 64.9 °F 59.0 °F 81% 30.09 in 10.0 mi NNE 10.4 mph - N/A   Clear
11:56 PM 64.9 °F 57.9 °F 78% 30.08 in 10.0 mi North 3.5 mph - N/A   Clear